CAPE
1 1 1 1 1 0 1 0 0 0 0 0 0 0 0 0 0 0 0 0 0 0 0 0 0 0 0 89 104 125 58 79 83 31 75 255 215 317 470 109 13 0 0 8 49
1 2 1 1 1 1 0 0 0 0 0 0 0 0 0 0 0 0 0 0 0 0 0 0 0 0 0 15 98 58 54 71 34 144 209 190 233 184 191 114 43 1 15 30 75
1 2 2 2 1 0 1 0 0 0 0 0 0 0 0 0 0 0 0 0 0 0 0 0 0 0 0 32 190 42 161 306 136 407 299 188 86 109 153 72 0 0 2 39 32
0 0 0 0 2 1 1 1 0 0 0 0 0 0 0 0 0 0 0 0 0 0 0 0 0 0 3 71 320 281 247 392 400 296 153 134 60 90 273 31 12 1 1 48 28
0 2 1 1 1 2 1 0 0 0 0 0 0 0 0 0 0 0 0 0 0 0 0 0 0 0 1 44 237 7 186 412 299 174 102 29 57 105 132 67 22 2 2 108 54
0 0 1 1 1 2 0 0 0 0 0 0 0 0 0 0 0 0 0 0 0 0 0 0 0 0 6 21 302 397 269 460 252 110 100 52 59 78 50 15 35 0 0 13 34
1 2 1 0 0 0 0 1 0 0 0 0 0 0 0 0 0 0 0 0 0 0 0 0 0 0 0 4 207 272 287 102 429 221 136 82 7 11 10 7 100 2 0 0 30
0 1 0 1 2 2 1 0 0 0 0 0 0 0 0 0 0 0 0 0 0 0 0 0 0 0 0 0 33 144 167 173 256 400 330 212 132 332 32 18 105 6 0 0 20
1 0 0 2 2 1 0 0 0 0 0 0 0 0 0 0 0 0 0 0 0 0 0 0 0 0 0 0 0 50 86 192 63 642 450 188 142 82 280 341 84 18 20 4 7
1 1 1 1 1 0 0 0 0 0 0 0 0 0 0 0 0 0 0 0 0 0 0 0 0 0 0 0 0 0 73 116 55 591 366 119 0 5 248 332 110 32 29 18 6
0 0 0 0 0 0 0 0 0 0 0 0 0 0 0 0 0 0 0 0 0 0 0 0 0 0 0 0 0 0 84 62 49 6 454 153 54 178 164 163 20 26 33 20 9
0 0 0 0 0 0 0 0 0 0 0 0 0 0 0 0 0 0 0 0 0 0 0 0 0 0 0 0 0 0 1 70 71 40 85 0 77 296 358 171 15 43 59 18 5
0 0 0 0 0 0 0 0 0 0 0 0 0 0 0 0 0 0 0 0 0 0 0 0 0 0 0 0 0 0 0 0 63 155 37 0 21 325 397 196 110 53 61 83 10
0 0 0 0 0 0 0 0 0 0 0 0 0 0 0 0 0 0 0 0 0 0 0 0 0 0 0 0 0 0 0 0 41 16 0 17 25 42 325 246 177 49 64 93 47
0 0 0 0 0 0 0 0 0 0 0 0 0 0 0 0 0 0 0 0 0 0 0 0 0 0 0 0 0 0 0 68 97 71 114 19 161 84 121 287 212 119 84 48 40
0 0 0 0 0 0 0 0 0 0 0 0 0 0 0 0 0 0 0 0 0 0 0 0 0 0 0 0 0 0 0 55 43 63 19 7 47 102 78 70 184 145 111 44 61
0 0 0 0 0 0 0 0 0 0 2 27 25 0 0 0 0 0 0 0 0 0 0 0 0 0 0 0 0 0 0 0 0 3 0 1 63 88 264 193 101 54 93 45 13
0 0 0 0 0 0 0 0 1 21 2 0 6 4 0 0 0 0 0 0 0 0 0 0 0 0 0 0 0 0 0 0 0 11 3 18 108 185 192 215 115 13 74 6 22
0 0 0 0 0 0 0 15 22 1 8 1 0 0 0 1 0 3 9 5 0 0 0 0 0 0 0 0 0 0 0 0 0 1 14 220 150 116 90 138 115 100 117 2 0
0 0 0 0 0 4 0 0 0 13 1 0 0 24 3 4 0 19 38 17 17 8 0 2 0 0 0 0 0 0 0 0 0 0 27 192 191 224 171 68 120 105 75 22 21
0 0 0 0 51 17 0 0 0 9 4 0 1 13 19 43 5 2 9 20 0 15 0 2 0 0 1 0 0 0 0 0 0 0 0 47 111 245 41 22 0 6 40 53 37
0 0 17 12 1 25 0 2 19 13 0 0 0 27 42 94 61 20 3 0 0 0 0 0 0 0 4 2 6 2 0 0 0 0 2 158 141 41 0 0 0 0 9 6 3
0 14 8 0 2 2 6 10 78 15 6 4 1 0 10 1 0 0 0 0 0 0 0 0 0 10 3 6 0 0 0 0 0 0 0 8 130 69 23 0 2 1 1 3 1
0 0 0 1 53 11 10 53 23 0 0 2 0 0 0 1 0 0 0 0 0 0 0 1 0 0 1 0 0 0 0 0 0 0 120 259 112 90 15 2 1 0 1 2 1
0 0 0 0 0 0 0 1 1 1 0 1 14 0 0 0 0 0 0 0 0 0 0 0 0 0 0 0 0 0 0 0 0 114 145 249 90 117 28 0 0 0 0 0 0
0 0 0 0 0 0 0 0 0 0 0 0 1 2 0 0 0 13 0 0 0 1 0 0 0 0 0 0 0 0 0 0 0 101 53 103 226 126 3 1 5 0 0 0 0
0 0 17 9 0 0 0 0 0 0 0 0 0 1 0 0 0 0 0 0 0 0 0 0 0 0 0 0 0 0 0 0 105 353 266 187 233 94 17 0 0 0 0 0 0
CIN
0 0 0 0 0 0 0 0 0 0 0 0 0 0 0 0 0 0 0 0 0 0 0 0 0 0 0 -41 -49 -22 -5 -2 -3 -34 -30 -28 -26 -35 -20 -9 -31 0 0 -16 -73
0 0 0 0 0 0 0 0 0 0 0 0 0 0 0 0 0 0 0 0 0 0 0 0 0 0 0 -87 -50 -74 -14 -8 -45 -49 -58 -41 -32 -26 -20 -14 -8 -3 -2 -16 -47
0 0 0 0 0 0 0 0 0 0 0 0 0 0 0 0 0 0 0 0 0 0 0 0 0 0 0 -74 -22 -45 -9 -10 -55 -36 -48 -59 -41 -56 -9 -12 -1 0 -1 -45 -30
-0 0 -0 0 0 0 0 0 0 0 0 0 0 0 0 0 0 0 0 0 0 0 0 0 0 0 -104 -29 -17 -113 -24 -32 -26 -44 -62 -60 -74 -38 -19 -20 -37 -70 -5 -26 -32
-0 0 0 0 0 0 0 0 0 0 0 0 0 0 0 0 0 0 0 0 0 0 0 0 0 0 -2 -36 -29 -84 -43 -9 -64 -63 -61 -90 -54 -48 -58 -30 -15 -55 -2 -25 -24
0 0 0 0 0 0 -0 -0 0 0 0 0 0 0 0 0 0 0 0 0 0 0 0 0 0 0 -22 -22 -11 -48 -34 -24 -68 -79 -34 -35 -36 -30 -53 -61 -23 -4 0 -6 -6
0 -0 -0 0 -0 -0 -0 0 0 0 0 0 0 0 0 0 0 0 0 0 0 0 0 0 0 0 0 -35 -12 -29 -17 -12 -16 -44 -15 -72 -8 -31 -94 -29 -17 -24 0 0 -4
0 -0 -1 -0 0 0 0 0 0 0 0 0 0 0 0 0 0 0 0 0 0 0 0 0 0 0 0 0 -10 -16 -25 -10 -18 -22 -46 -28 -166 -3 -77 -74 -13 -13 -10 0 -8
0 0 0 0 -0 0 0 0 0 0 0 0 0 0 0 0 0 0 0 0 0 0 0 0 0 0 0 0 0 -15 -28 -28 -24 -5 -41 -26 -47 -53 -28 -11 -10 -9 -5 -8 -16
0 0 0 0 0 0 0 0 0 0 0 0 0 0 0 0 0 0 0 0 0 0 0 0 0 0 0 0 0 -5 -33 -14 -27 -5 -34 -69 0 -235 -24 -20 -8 -9 -3 -4 -21
0 0 0 0 0 0 0 0 0 0 0 0 0 0 0 0 0 0 0 0 0 0 0 0 0 0 0 0 0 0 -6 -33 -52 -68 -23 -34 -99 -91 -49 -9 -11 -3 -6 -3 -11
0 0 0 0 0 0 0 0 0 0 0 0 0 0 0 0 0 0 0 0 0 0 0 0 0 0 0 0 0 0 -4 -3 -37 -165 -67 0 -24 -26 -4 -5 -29 -9 -9 -9 -18
0 0 0 0 0 0 0 0 0 0 0 0 0 0 0 0 0 0 0 0 0 0 0 0 0 0 0 0 0 0 0 0 -31 -143 -254 0 -4 -23 -5 -11 -22 -31 -19 -25 -28
0 0 0 0 0 0 0 0 0 0 0 0 0 0 0 0 0 0 0 0 0 0 0 0 0 0 0 0 0 0 0 0 -57 -41 -26 -89 -22 -135 -15 -15 -36 -40 -37 -53 -24
0 0 0 0 0 0 0 0 0 0 0 0 0 0 0 0 0 0 0 0 0 0 0 0 0 0 0 0 0 0 0 -6 -19 -16 -18 -127 -28 -114 -33 -6 -31 -26 -35 -57 -69
0 0 0 0 0 0 0 0 0 0 0 0 0 0 0 0 0 0 0 0 0 0 0 0 0 0 0 0 0 0 0 -7 -14 -15 -17 -35 -57 -68 -110 -72 -25 -40 -41 -59 -56
0 0 0 0 0 0 0 0 0 0 -28 -10 -31 0 0 0 0 0 -0 0 0 0 0 0 0 0 0 0 0 0 0 0 -4 -8 0 -4 -101 -81 -101 -124 -84 -104 -103 -71 -62
0 0 0 0 0 0 0 0 -4 -15 -28 0 -50 -45 0 0 0 0 -1 0 0 0 0 0 0 0 0 0 0 0 0 0 0 -9 -7 -22 -81 -168 -126 -134 -125 -173 -251 -62 -92
0 0 0 0 0 0 0 -12 -25 -4 -61 -15 0 0 -2 -4 -3 -5 -3 -7 0 0 0 0 0 0 0 0 0 0 0 0 0 -34 -7 -107 -143 -132 -150 -57 -94 -103 -179 -123 0
0 0 0 0 0 -13 0 0 0 -66 -10 0 0 -11 -57 -89 -27 -134 -77 -14 -11 -18 0 -17 0 0 0 -2 0 0 0 0 0 0 -6 -83 -117 -67 -99 -129 -111 -177 -243 -281 -215
0 0 0 0 -18 -71 0 0 0 -73 -42 0 -3 -19 -100 -103 -48 -55 -98 -118 0 -53 -0 -58 0 0 -24 0 0 0 0 0 0 0 0 -11 -35 -42 -166 -241 0 -105 -280 -193 -199
0 0 -30 -20 -3 -135 0 -152 -102 -7 0 -0 0 -19 -63 -131 -118 -108 -102 0 0 0 0 0 0 0 -28 -6 -22 -19 0 0 0 0 -9 -46 -62 -95 0 0 0 0 -213 -272 0
0 -71 -10 0 -6 -31 -109 -65 -55 -14 -2 -13 -16 0 -42 -15 -27 -67 -7 0 0 0 0 0 -11 -81 -38 -26 0 0 0 0 0 0 0 0 -45 -171 -169 0 -2 0 0 0 0
0 0 0 -14 -12 -32 -38 -33 -22 0 0 -3 0 0 0 -11 -30 0 0 0 0 0 0 -24 0 0 -13 0 0 0 0 0 0 0 -66 -37 -97 -106 -144 0 0 0 0 0 0
0 0 0 0 0 0 0 -1 -6 -5 0 -13 -9 -18 0 0 0 -31 0 0 0 0 0 0 0 0 0 0 0 0 0 0 0 -35 -36 -54 -53 -56 -175 0 0 0 0 0 0
0 0 0 0 0 0 0 0 0 0 0 0 -3 -48 -1 -1 0 -39 -2 0 -10 -16 0 0 0 0 0 0 0 0 0 0 0 -52 -36 -37 -27 -56 -53 -9 -0 0 0 0 0
0 0 -39 -7 -2 0 0 0 0 0 0 0 0 -6 0 0 0 0 0 0 0 0 0 0 0 0 0 0 0 0 -1 0 -41 -36 -44 -61 -40 -43 -100 0 0 0 0 0 0
Wind_Speed
29 29 29 29 28 28 28 28 27 26 26 25 25 24 24 24 25 23 25 22 23 24 21 21 25 27 26 24 24 14 17 15 10 23 17 22 16 14 22 24 27 21 32 29 28
29 29 29 29 29 29 28 28 28 27 27 26 25 25 24 24 25 29 30 29 26 20 23 26 21 28 24 20 16 16 17 8 23 21 24 17 5 5 8 23 23 29 26 27 26
30 30 29 29 29 29 29 28 28 28 28 26 26 25 24 23 23 23 22 33 20 8 28 31 30 29 28 26 12 16 14 14 22 18 21 22 8 11 5 17 27 30 32 25 24
30 30 30 29 29 29 29 28 28 28 28 27 26 25 24 20 17 17 13 3 11 16 25 32 32 31 28 27 10 11 14 10 15 19 19 17 4 10 2 2 20 27 26 24 26
31 30 30 29 29 29 29 29 29 28 28 27 26 24 21 21 27 16 10 8 14 17 23 30 30 30 27 20 11 15 13 8 19 18 16 12 8 11 1 7 9 27 27 25 25
30 30 30 30 30 29 29 29 28 28 27 26 24 22 20 25 15 9 10 12 18 16 23 30 23 27 25 21 14 14 17 14 15 17 17 13 11 8 23 10 23 25 29 28 25
31 31 30 29 29 30 29 29 28 28 26 25 22 19 24 29 12 10 10 18 17 18 21 31 32 28 24 26 14 6 14 5 8 13 14 16 16 21 23 13 34 24 31 31 33
30 30 30 29 29 29 29 28 27 26 23 22 16 18 25 23 28 16 12 16 23 23 31 30 29 29 30 27 21 17 11 21 3 15 12 7 13 16 24 26 26 27 30 32 8
30 30 29 29 29 28 27 26 25 22 20 12 13 19 25 17 21 24 11 16 20 21 32 32 30 31 28 25 26 22 24 17 6 9 7 7 5 21 10 24 16 26 31 28 17
30 30 29 28 28 26 25 24 20 20 15 13 20 20 23 22 18 24 13 15 16 19 29 30 28 29 31 28 28 22 27 25 18 6 7 5 6 16 20 30 26 26 22 19 16
31 29 28 27 26 25 22 19 19 18 17 19 16 22 24 18 10 19 16 17 15 21 23 26 25 29 34 35 36 34 26 20 9 22 6 17 2 4 12 15 16 25 21 15 14
31 29 27 26 25 22 19 19 22 26 27 27 34 32 32 22 17 18 17 19 20 24 23 24 32 29 32 36 38 37 30 21 12 26 17 19 24 4 7 7 17 22 24 11 17
31 28 26 26 25 17 14 17 21 26 28 33 35 28 27 26 19 19 19 23 21 26 27 31 29 33 37 36 39 39 37 30 25 16 17 16 27 9 5 4 5 12 10 16 11
31 29 27 27 20 17 13 5 7 27 25 23 16 24 23 22 23 17 20 22 23 29 28 33 39 31 35 38 36 39 35 33 13 17 22 10 8 32 23 4 6 11 11 19 17
31 28 26 19 20 18 8 25 25 22 20 14 8 9 12 21 19 22 16 26 31 25 27 35 32 39 38 37 36 37 29 19 22 25 19 15 17 14 7 6 17 10 8 13 23
29 28 23 16 12 4 11 20 18 17 20 20 12 14 15 20 29 24 20 24 29 35 33 36 37 38 39 34 37 37 33 23 24 26 35 34 22 15 7 10 9 13 16 14 33
27 27 16 15 11 6 19 15 16 17 22 20 19 21 15 20 25 29 25 24 33 32 37 33 39 40 39 34 36 38 33 26 29 29 31 21 21 25 10 8 6 6 17 21 34
26 17 9 6 7 10 17 17 18 17 20 24 23 27 27 18 25 29 27 27 31 37 31 34 38 39 35 37 36 38 31 30 26 31 29 26 21 20 9 6 8 4 16 8 14
24 14 10 8 11 12 16 17 16 16 19 23 27 27 26 20 23 29 26 28 28 36 36 29 38 32 39 31 33 36 39 34 35 31 29 20 15 9 4 5 5 6 7 1 12
18 13 7 13 11 12 17 21 18 16 23 25 29 20 20 20 16 19 25 21 28 26 25 27 34 36 36 28 33 38 28 38 32 34 31 22 20 18 9 7 5 11 9 10 16
16 15 14 14 14 15 21 17 21 19 18 20 18 17 16 16 17 17 22 21 17 22 23 25 26 33 35 33 33 30 33 29 30 29 32 25 23 16 10 9 11 10 7 10 13
13 15 14 15 13 16 18 9 9 14 20 16 15 15 14 18 19 20 20 21 24 24 24 23 24 31 29 30 26 29 31 32 31 33 25 20 23 8 5 6 6 9 7 9 10
13 11 14 16 13 15 15 9 10 17 17 18 16 15 13 14 16 19 21 25 28 25 20 21 21 28 28 27 34 31 30 30 35 32 36 29 25 11 9 4 6 6 6 6 7
14 17 16 21 18 16 18 11 11 14 13 14 13 15 15 13 9 14 21 20 22 20 21 19 22 22 29 27 26 34 35 35 33 31 23 21 18 12 9 8 3 6 5 5 5
15 14 15 13 12 19 19 11 6 15 16 9 16 18 15 14 17 13 17 14 19 18 20 18 23 28 33 31 32 34 34 36 33 21 22 16 17 13 8 6 2 1 3 3 5
12 13 8 12 15 13 19 16 17 18 17 18 17 17 12 12 13 18 15 15 13 15 10 19 22 23 24 25 28 32 31 35 28 17 16 15 13 5 4 5 3 3 3 4 4
12 11 10 11 7 22 16 18 17 16 15 17 17 13 11 14 17 18 20 17 15 16 16 12 19 15 20 22 24 16 23 19 12 10 13 20 14 9 6 4 3 1 1 4 5
Wind_Direction
332 325 322 317 315 309 303 298 296 294 292 291 289 283 276 270 267 266 251 244 237 218 235 232 217 202 204 191 187 313 266 11 200 111 101 109 86 205 177 92 117 140 117 108 105
334 324 318 315 312 310 307 301 296 293 290 288 288 285 279 275 266 252 235 223 229 153 235 217 226 204 223 215 249 323 252 134 178 104 114 103 80 231 160 109 126 109 107 110 105
333 324 318 313 310 308 307 303 298 293 288 288 285 287 281 278 273 260 265 207 248 253 225 206 189 189 215 214 289 332 304 10 128 91 108 112 80 237 67 93 115 119 123 117 115
329 324 319 314 309 306 305 302 299 294 290 285 285 283 282 278 273 277 285 208 258 250 233 213 218 212 229 235 295 89 255 3 65 89 97 101 81 231 315 106 109 117 118 118 119
328 324 320 315 311 307 303 303 299 295 289 286 284 284 284 272 253 280 298 262 255 248 235 225 226 221 237 255 293 323 285 34 81 89 88 72 71 243 27 90 118 120 127 125 125
338 324 316 308 308 307 306 302 298 294 290 286 286 287 279 262 279 292 287 262 250 243 237 227 238 236 249 269 279 292 268 88 84 91 83 74 86 90 141 218 204 128 139 139 134
327 324 313 303 304 302 301 301 297 293 292 287 284 286 271 249 285 295 282 256 245 241 238 230 230 247 253 257 269 327 270 23 75 92 87 83 108 133 132 139 180 131 145 150 169
314 312 313 306 305 300 297 299 299 297 296 290 293 284 268 266 251 272 277 259 239 239 230 233 244 251 253 260 268 272 286 257 93 122 103 32 245 97 134 144 144 141 144 154 141
313 311 309 306 308 304 301 294 293 309 307 319 303 281 267 282 262 258 269 254 242 242 230 236 242 243 255 258 257 262 256 273 172 148 101 321 350 209 109 146 139 146 151 149 129
314 312 316 314 309 305 295 293 319 312 329 318 285 281 269 267 266 252 262 249 240 240 237 241 247 246 243 248 247 247 253 262 266 218 154 314 86 120 136 155 147 150 147 142 136
316 307 307 311 329 322 322 334 334 324 309 288 289 274 274 276 273 251 245 244 241 244 242 244 245 243 239 234 232 239 257 267 240 273 241 286 106 108 124 136 141 152 151 148 143
325 319 311 311 317 345 346 339 313 302 295 282 260 263 261 274 263 251 242 243 242 243 243 245 243 247 243 236 236 238 257 259 274 230 258 307 271 178 141 137 142 152 156 165 146
326 312 303 309 309 4 6 340 284 294 300 282 257 262 264 269 257 247 243 243 243 243 242 242 245 243 236 242 238 239 247 250 256 275 293 289 235 263 239 204 212 230 220 240 206
324 315 314 319 357 11 6 50 201 306 307 299 293 266 261 268 257 253 246 242 250 245 245 245 237 244 241 241 243 243 244 251 252 265 274 260 288 227 228 233 156 183 213 243 246
322 322 335 6 352 360 46 325 310 317 301 329 331 304 278 258 267 253 249 245 244 248 247 242 243 237 242 242 243 241 255 258 261 273 272 252 282 282 247 236 244 239 190 198 245
301 317 348 14 23 92 232 256 311 314 287 314 318 297 279 264 257 260 242 248 250 249 253 249 245 243 241 246 243 235 248 261 267 261 259 255 267 278 247 254 240 255 256 213 226
286 318 4 4 19 210 269 11 342 313 316 302 309 300 282 269 258 252 238 243 240 245 247 252 245 243 243 250 241 237 247 249 253 248 254 272 262 267 270 240 180 247 261 248 241
284 258 27 58 69 193 253 348 330 327 310 298 302 297 291 282 255 250 243 243 246 245 252 248 244 241 245 243 241 239 247 243 247 248 255 268 269 263 286 255 226 234 141 233 235
285 28 41 105 126 139 279 344 331 321 267 269 278 288 289 289 263 249 239 242 248 242 247 258 249 252 243 250 244 239 242 243 253 269 263 269 279 309 300 307 228 266 280 180 150
26 55 138 166 116 49 337 304 304 301 282 283 281 318 307 294 274 277 256 245 249 246 260 259 258 247 242 246 245 239 251 241 252 254 255 264 260 263 245 258 268 257 271 276 269
47 58 81 118 74 330 331 336 266 225 226 316 330 329 317 282 265 272 256 257 282 252 269 265 258 246 245 239 238 239 244 248 253 254 257 260 267 278 245 256 259 287 308 293 285
71 71 124 75 17 4 336 158 170 306 339 333 325 310 299 261 260 255 256 247 267 261 264 261 256 249 247 241 250 249 244 247 247 247 263 270 263 286 317 299 275 280 298 291 297
82 115 136 70 70 20 22 66 156 253 6 0 301 309 312 271 258 255 253 249 270 260 260 252 259 249 247 242 249 249 244 246 250 257 257 263 259 272 266 350 300 291 302 303 315
98 76 86 37 58 40 12 60 147 55 12 48 304 300 283 279 312 283 251 258 269 243 262 258 260 258 244 244 257 247 246 247 249 256 261 265 254 253 262 277 299 283 310 320 319
105 102 105 96 92 44 8 329 100 4 315 48 349 282 278 279 279 295 258 281 261 273 255 258 251 266 258 253 257 257 244 241 249 254 259 249 255 251 251 246 224 314 358 332 343
172 135 207 122 118 97 29 313 336 317 302 308 326 288 292 289 289 277 301 284 295 275 273 251 245 263 248 253 258 260 246 242 254 257 255 250 245 222 173 138 164 108 59 36 24
246 218 166 172 127 83 83 341 323 299 298 315 303 309 320 285 284 280 280 290 302 273 270 262 251 273 253 264 265 242 253 244 272 252 234 239 233 190 173 180 180 189 353 27 35